Location: �quirre
(50.4736°N, 2.2351°E)
Time: 06:31:46
(UTC+00:00)

Cosmos 1809 Rocket - Pass Details

Date: 07 August 2020
Orbit: 942 x 962 km, 82.5° (Epoch: 23 September)

Event Time Altitude Azimuth Distance (km) Brightness Sun altitude
Rises 03:03:37 0° 348° (NNW) 3,622 8.0 -11.7°
Reaches altitude 10° 03:06:07 10° 346° (NNW) 2,674 7.2 -11.4°
Maximum altitude 03:12:11 71° 264° (W) 1,002 4.4 -10.7°
Drops below altitude 10° 03:18:14 10° 182° (S) 2,666 6.4 -10.0°
Sets 03:20:44 0° 180° (S) 3,610 7.1 -9.7°
